Greensboro, NC

12:57 AM EDT on July 28, 2017 (GMT -0400)
Piedmont Triad International

Weather History for KGSO - September, 2013

Change the Weather History Date:

Wednesday, September 25, 2013

  Actual Average Record
Temperature  
Mean Temperature 62 °F 67 °F  
Max Temperature 69 °F 77 °F 95 °F (1933)
Min Temperature 55 °F 57 °F 37 °F (1983)
Degree Days  
Heating Degree Days 3 2  
Month to date heating degree days 6 17  
Since 1 July heating degree days 8 18  
Cooling Degree Days 0 4  
Month to date cooling degree days 171 169  
Year to date cooling degree days 1330 1431  
Growing Degree Days 12 (Base 50)    
Moisture  
Dew Point 57 °F    
Average Humidity 80    
Maximum Humidity 93    
Minimum Humidity 66    
Precipitation  
Precipitation T in 0.12 in 2.11 in (2015)
Month to date precipitation 2.13 3.58  
Year to date precipitation 40.52 32.37  
Sea Level Pressure  
Sea Level Pressure 29.91 in    
Wind  
Wind Speed 2 mph (North)    
Max Wind Speed 9 mph    
Max Gust Speed 10 mph    
Visibility 9 miles    
Events Rain    
T = Trace of Precipitation, MM = Missing Value Source: NWS Daily Summary

Daily Weather History Graph

Daily Weather History Graph

Search for Another Location

Airport or City:

Trip Planner

Search our weather history database for the weather conditions in past years. The results will help you decide how hot, cold, wet, or windy it might be!

Date:

Astronomy

Sep. 25, 2013 Rise Set
Actual Time 7:10 AM EDT 7:11 PM EDT
Civil Twilight 6:44 AM EDT 7:37 PM EDT
Nautical Twilight 6:14 AM EDT 8:07 PM EDT
Astronomical Twilight 5:44 AM EDT 8:37 PM EDT
Moon 11:26 PM EDT (9/25) 1:05 PM EDT (9/25)
Length of Visible Light 12h 52m
Length of Day
12h 01m
Waning Gibbous, 64% of the Moon is Illuminated
Sep 25
Waning Gibbous
Sep 26
Last Quarter
Oct 4
New
Oct 11
First Quarter
Oct 18
Full

Hourly Weather History & Observations

Time (EDT) Temp. Dew Point Humidity Pressure Visibility Wind Dir Wind Speed Gust Speed Precip Events Conditions
12:54 AM 61.0 °F 55.0 °F 81% 29.94 in 10.0 mi Calm Calm - N/A   Scattered Clouds
1:54 AM 61.0 °F 55.9 °F 83% 29.94 in 10.0 mi Calm Calm - N/A   Mostly Cloudy
2:54 AM 59.0 °F 55.0 °F 87% 29.93 in 10.0 mi Calm Calm - N/A   Mostly Cloudy
3:54 AM 59.0 °F 55.0 °F 87% 29.92 in 10.0 mi Calm Calm - N/A   Mostly Cloudy
4:54 AM 55.9 °F 54.0 °F 93% 29.91 in 9.0 mi Calm Calm - N/A   Scattered Clouds
5:54 AM 55.9 °F 53.1 °F 90% 29.91 in 8.0 mi Calm Calm - N/A   Partly Cloudy
6:54 AM 55.9 °F 53.1 °F 90% 29.93 in 9.0 mi Calm Calm - N/A   Mostly Cloudy
7:54 AM 59.0 °F 55.0 °F 87% 29.93 in 9.0 mi Calm Calm - N/A   Overcast
8:54 AM 62.1 °F 57.0 °F 84% 29.93 in 7.0 mi NNE 3.5 mph - N/A   Mostly Cloudy
9:54 AM 64.0 °F 57.0 °F 78% 29.93 in 9.0 mi Calm Calm - N/A   Mostly Cloudy
10:54 AM 66.0 °F 57.0 °F 73% 29.93 in 10.0 mi Calm Calm - N/A   Mostly Cloudy
11:54 AM 66.9 °F 57.0 °F 70% 29.94 in 10.0 mi NW 3.5 mph - N/A   Mostly Cloudy
12:54 PM 66.9 °F 57.0 °F 70% 29.94 in 10.0 mi West 3.5 mph - N/A   Overcast
1:54 PM 66.9 °F 60.1 °F 79% 29.92 in 10.0 mi NNE 4.6 mph - 0.00 in Rain Light Rain
2:54 PM 66.9 °F 59.0 °F 76% 29.89 in 10.0 mi NNE 5.8 mph - 0.00 in Rain Light Rain
3:54 PM 68.0 °F 57.9 °F 70% 29.89 in 10.0 mi NNE 3.5 mph - 0.00 in   Mostly Cloudy
4:54 PM 69.1 °F 57.0 °F 65% 29.89 in 10.0 mi North 4.6 mph - N/A   Mostly Cloudy
5:54 PM 66.9 °F 57.9 °F 73% 29.89 in 10.0 mi NNE 5.8 mph - N/A   Overcast
6:54 PM 64.9 °F 57.9 °F 78% 29.89 in 10.0 mi NE 5.8 mph - N/A   Overcast
7:54 PM 64.0 °F 59.0 °F 84% 29.88 in 10.0 mi East 5.8 mph - 0.00 in Rain Light Rain
8:54 PM 63.0 °F 59.0 °F 87% 29.91 in 10.0 mi NW 3.5 mph - 0.00 in   Mostly Cloudy
9:54 PM 62.1 °F 59.0 °F 90% 29.90 in 7.0 mi North 4.6 mph - N/A   Mostly Cloudy
10:54 PM 62.1 °F 59.0 °F 90% 29.90 in 6.0 mi Calm Calm - N/A   Mostly Cloudy
11:26 PM 62.6 °F 60.8 °F 94% 29.93 in 5.0 mi Calm Calm - N/A   Mostly Cloudy
11:54 PM 62.1 °F 60.1 °F 93% 29.91 in 5.0 mi Calm Calm - N/A   Overcast